Regional Weather Roundup
Issued by NWS Charleston, SC

Home | Current Version | Previous Version | Text Only | Print | Product List | Glossary On
Versions: 1 2 3 4 5 6 7 8 9 10 11 12 13 14 15 16 17 18 19 20 21 22 23 24 25 26 27 28 29 30 31 32 33 34 35 36 37 38 39 40 41 42 43 44 45 46 47 48 49 50
000
ASUS42 KCHS 191410
RWRCHS

REGIONAL WEATHER ROUNDUP
NATIONAL WEATHER SERVICE CHARLESTON SC
1000 AM EDT FRI SEP 19 2014

NOTE: "FAIR" INDICATES FEW OR NO CLOUDS BELOW 12,000 FEET WITH NO
SIGNIFICANT WEATHER AND/OR OBSTRUCTIONS TO VISIBILITY.

NOT ALL STATIONS ARE QUALITY CONTROLLED BY THE NATIONAL
WEATHER SERVICE. USE DATA WITH CAUTION...ESPECIALLY
DEWPOINT OBSERVATIONS.

SCZ027-030-031-034>040-042>050-191500-
...SOUTH CAROLINA...

CITY           SKY/WX    TMP DP  RH WIND       PRES   REMARKS
N CHARLESTON   CLOUDY    76  68  76 E8        30.07R
WATERFRONT PRK   N/A     75 N/A N/A E12         N/A
FORT JOHNSON   NOT AVBL
MOUNT PLEASANT DRIZZLE   72  72 100 E3        30.08R
JOHNS ISLAND   MOSUNNY   73  73 100 NE12      30.07R
PINOPOLIS        N/A     75  70  83 E7        30.00R
MONCKS CORNER    N/A     75  72  88 E3        30.08R
SUMMERVILLE    FAIR      73  72  94 E3        30.09R
BEAUFORT MCAS  PTSUNNY   78  72  81 W7        30.05R
BEAUFORT ARPT  FAIR      77  73  88 NE7       30.04S
HILTON HEAD IS SUNNY     81  72  74 NE6       30.05R
GEORGETOWN     NOT AVBL
WALTERBORO     CLOUDY    75  75 100 E8        30.08R
ORANGEBURG     CLOUDY    74  67  78 NE7       30.09R
BARNWELL       CLOUDY    72  70  94 N15       30.10R
AIKEN          DRIZZLE   68  68 100 E10       30.13S
MANNING        FAIR      75  68  78 E7        30.09R
KINGSTREE      NOT AVBL
COLUMBIA       LGT RAIN  69  66  90 N9        30.10R
SUMTER         CLOUDY    72  62  71 NE10      30.10R
FLORENCE       CLOUDY    74  63  68 E8        30.12R
MYRTLE BEACH   SUNNY     75  66  73 E17       30.08S
N MYRTLE BEACH PTSUNNY   76  67  73 NE10      30.09R

$$

GAZ063-065-086>088-099>101-113>116-118-119-134-136>141-150-191500-
...GEORGIA...

CITY           SKY/WX    TMP DP  RH WIND       PRES   REMARKS
SAVANNAH ARPT  CLOUDY    80  71  74 E8        30.04R
HUNTER AAF     PTSUNNY   80  74  81 NE8       30.02R
FORT STEWART   PTSUNNY   77  71  81 VRB3      30.03R
STATESBORO     NOT AVBL
SYLVANIA       CLOUDY    75  74  94 E5        30.07R
CLAXTON        FAIR      77  77 100 NE5       30.05S
THOMSON        CLOUDY    71  71  99 NE10G16   30.15R
AUGUSTA-BUSH   CLOUDY    70  66  87 N6        30.10R
AUGUSTA-DANIEL LGT RAIN  70  64  81 N8        30.11R
SWAINSBORO     FAIR      73  73 100 E6        30.07R
VIDALIA        PTSUNNY   79  72  78 E7        30.05R
ALMA           MOSUNNY   79  72  79 E7        30.03R
WAYCROSS       PTSUNNY   80  76  88 E6        30.02R
JESUP          FAIR      79  75  89 E5        30.03R
BRUNSWICK      PTSUNNY   79  73  83 CALM      30.03R
SAINT SIMONS   PTSUNNY   78  72  81 NE5       30.01S

$$

SCZ027-028-034-036>038-045-046-048>050-GAZ119-141-191500-
...LAKE AND SUPPLEMENTAL COASTAL OBSERVATIONS...

STATION/POSITION TIME  TEMP    WIND        PRES    WAVE   SWELL
                       AIR SEA DIR/SP/G            HT/PER HT/PER/DIR
                 (UTC) (F)     (DEG/KT/KT) (MB)    (FT/S) (FT/S/D)
UPR LAKE MARION  NOT AVBL
WINYAH BAY       1300   79      70/ 13     1017.0S
LAKE MURRAY      1300   66     350/  3/  5 1019.0R
ACE BASIN NERRS  1300   72      30/  1     1017.0S
FORT PULASKI     1400   80      50/  9/ 12 1017.3R
SAPELO ISLAND    1300   77      70/  3     1016.0S

$$

ANZ835-935-AMZ111-154-330-350-352-354-374-450-454-472-191500-
...C-MAN AND BUOY OBSERVATIONS...

STATION/POSITION TIME  TEMP    WIND        PRES    WAVE   SWELL
                       AIR SEA DIR/SP/G            HT/PER HT/PER/DIR
                 (UTC) (F)     (DEG/KT/KT) (MB)    (FT/S) (FT/S/D)
FOLLY BEACH CMAN 1300   76      40/ 12/ 13 1017.7F
BUOY 41004       1400   80 82   70/ 14/ 23 1016.9R   4/ 6   2/ 9
BUOY 41008       1400   81 84   70/ 10/ 12 1016.6R   2/ 9   2/110/ 9
5E ST. MARYS GA  1400      84                N/A     2/ 9   2/ 90/11
FRYING PAN BUOY  NOT AVBL
BUOY 41025       1400   77      60/ 16/ 21 1020.5R   6/ 6   2/ 60/ 8
CAPE LOOKOUT NC  1300   75      30/ 18/ 21 1020.3R
BUOY 41002       1252   79 82   80/ 16/ 17 1018.5    4/ 6   2/ 80/ 9
BUOY 41010       1400   82 85   80/ 10/ 14 1015.6R   3/10   3/ 50/10
BUOY 41012       NOT AVBL
ST AUGUSTINE FL  1400   82      80/  8/  9 1016.3R
CAPERS NEARSHORE 1300   76      90/ 12/ 17   N/A
FRIPP NEARSHORE  NOT AVBL


$$


USA.gov is the U.S. government's official web portal to all federal, state and local government web resources and services.